GALS 1 1 22963U 94002A 21066.19433079 .00000112 00000-0 00000+0 0 9991 2 22963 14.6902 9.0155 0005840 146.1605 113.3093 1.00278112 99365 SL-12 R/B(2) 1 22966U 94002D 21065.36774258 .00000025 00000-0 00000-0 0 9993 2 22966 15.0361 359.0536 0044545 92.2780 89.3839 0.99465367 97896